Location: Warner Observatory
(35.1353°N, 89.5455°W)
Time: 13:19:26
(UTC-06:00)

Amateur Radio Satellites - All Passes

Search period start: 01 March 2015 12:49
Search period end: 02 March 2015 12:49
Location: Warner Observatory, 35.1353°N, 89.5455°W

Satellite Date Start Highest point End Downlink Frequencies (MHz)
Time Altitude Azimuth
ITAMSAT 1 01 Mar 13:02:41 13:07:32 42° 72° (ENE) 13:12:28 435.822/435.867
Oscar 19 01 Mar 13:07:30 13:12:33 55° 260° (W) 13:17:36 437.125/150
SWISSCUBE 01 Mar 13:12:23 13:17:04 50° 100° (E) 13:21:44 437.505
BEESAT 01 Mar 13:21:15 13:26:00 57° 101° (E) 13:30:43 436.000
AO-7 01 Mar 13:34:50 13:40:14 20° 58° (ENE) 13:45:59 29.400- 29.500
ITUPSAT 1 01 Mar 13:47:39 13:52:29 75° 284° (WNW) 13:57:17 437.325
KKS-1 01 Mar 13:56:44 14:00:16 23° 95° (E) 14:03:51 437.445
Gurwin Techsat 1B 01 Mar 14:05:35 14:10:50 65° 258° (WSW) 14:16:08 435.225
STARS 01 Mar 14:06:47 14:09:51 19° 94° (E) 14:13:01 437.465
JAS-2 01 Mar 14:22:04 14:24:53 15° 62° (ENE) 14:28:07 435.910
ITAMSAT 1 01 Mar 14:43:25 14:47:15 20° 267° (W) 14:50:56 435.822/435.867
ISS 01 Mar 14:47:28 14:48:54 12° 26° (NNE) 14:50:24 145.825
SWISSCUBE 01 Mar 14:51:42 14:54:34 15° 293° (WNW) 14:57:14 437.505
HORYU 2 01 Mar 14:53:44 14:58:09 72° 258° (WSW) 15:02:35 437.375
YUBILEINY 01 Mar 14:53:56 15:00:29 26° 85° (E) 15:07:24 435.215
BEESAT 01 Mar 15:01:00 15:03:25 13° 294° (WNW) 15:05:35 436.000
AO-7 01 Mar 15:23:49 15:32:12 84° 254° (WSW) 15:40:35 29.400- 29.500
KKS-1 01 Mar 15:33:10 15:36:53 26° 289° (WNW) 15:40:30 437.445
STARS 01 Mar 15:42:30 15:46:25 31° 288° (WNW) 15:50:14 437.465
JAS-2 01 Mar 16:04:01 16:09:18 65° 259° (W) 16:15:10 435.910
Cubesat XI-IV 01 Mar 16:20:43 16:24:07 18° 66° (ENE) 16:27:44 437.490
ISS 01 Mar 16:22:31 16:25:45 88° 223° (SW) 16:29:00 145.825
CUTE-I 01 Mar 16:29:33 16:33:26 21° 67° (ENE) 16:37:30 437.470
MOZHAYETS 4 01 Mar 16:34:07 16:38:44 62° 100° (E) 16:43:19
M-CUBED/EXP-1 PRIME 01 Mar 16:40:20 16:44:37 78° 288° (WNW) 16:49:12 437.505
AUBIESAT-1 01 Mar 16:43:26 16:47:44 81° 286° (WNW) 16:52:19 437.475
YUBILEINY 01 Mar 16:48:12 16:56:46 59° 281° (W) 17:05:25 435.215
BEESAT 3 01 Mar 16:53:06 16:57:02 51° 116° (ESE) 17:01:04 437.485
AIST 2 01 Mar 17:08:12 17:11:28 22° 111° (ESE) 17:14:51 435.215
PHONESAT 2.4 01 Mar 17:13:29 17:16:23 23° 146° (SE) 17:19:20 2401.200-2431.200
BEESAT 2 01 Mar 17:17:00 17:21:06 84° 118° (ESE) 17:25:17 435.950
VERMONT LUNAR 01 Mar 17:18:15 17:21:38 51° 152° (SSE) 17:25:03 437.305
AO-7 01 Mar 17:22:18 17:26:17 13° 272° (W) 17:29:33 29.400- 29.500
AIST 1 01 Mar 17:51:56 17:55:57 34° 78° (ENE) 17:59:59
Cubesat XI-IV 01 Mar 17:58:37 18:03:51 52° 260° (W) 18:09:06 437.490
STRAND 1 01 Mar 18:05:54 18:10:01 25° 94° (E) 18:14:14 437.568
CUTE-I 01 Mar 18:08:10 18:13:15 43° 262° (W) 18:18:20 437.470
PRISM 01 Mar 18:09:04 18:13:09 45° 99° (E) 18:17:13 437.425
HO-68 01 Mar 18:09:52 18:12:23 13° 57° (ENE) 18:15:24 435.675
MOZHAYETS 4 01 Mar 18:13:45 18:15:30 12° 293° (WNW) 18:17:00
CUBESAT XI-V 01 Mar 18:29:30 18:34:15 79° 103° (ESE) 18:38:56 437.345
BEESAT 3 01 Mar 18:33:12 18:35:30 14° 313° (NW) 18:37:40 437.485
AIST 2 01 Mar 18:46:11 18:49:57 29° 307° (NW) 18:53:42 435.215
PHONESAT 2.4 01 Mar 18:51:00 18:54:38 73° 339° (NNW) 18:58:17 2401.200-2431.200
VERMONT LUNAR 01 Mar 18:56:16 18:59:37 42° 347° (NNW) 19:02:58 437.305
BRITE-PL 01 Mar 19:03:32 19:08:33 34° 72° (ENE) 19:13:31 437.365/2234.400
GOMX 1 01 Mar 19:14:57 19:19:30 29° 72° (ENE) 19:24:00 467.674
O/OREOS (USA 219) 01 Mar 19:19:14 19:23:49 66° 69° (ENE) 19:28:20 437.305
AAUSAT CUBESAT 2 01 Mar 19:23:59 19:26:12 15° 69° (ENE) 19:28:37 437.432
COMPASS 1 01 Mar 19:25:06 19:27:49 18° 70° (ENE) 19:30:41 437.405
AIST 1 01 Mar 19:30:36 19:33:22 16° 272° (W) 19:35:57
STRAND 1 01 Mar 19:44:40 19:49:16 33° 290° (WNW) 19:53:47 437.568
PRISM 01 Mar 19:46:14 19:48:18 13° 292° (WNW) 19:50:10 437.425
SEEDS 01 Mar 19:49:23 19:53:20 42° 74° (ENE) 19:57:19 437.485
CANX-2 01 Mar 19:50:33 19:54:42 60° 76° (ENE) 19:58:52 2200.000
HO-68 01 Mar 19:52:02 19:59:08 77° 73° (ENE) 20:06:19 435.675
DOVE 4 01 Mar 19:54:50 19:59:50 49° 75° (ENE) 20:04:40 437.250
UWE-3 01 Mar 20:07:18 20:09:34 14° 69° (ENE) 20:12:01 435.000/436.395/437.385
CUTE 1.7 + AOD 2 01 Mar 20:09:15 20:13:28 88° 257° (WSW) 20:17:42 437.475
CINEMA 3 01 Mar 20:11:55 20:16:21 38° 74° (ENE) 20:20:42 145.822/145.860
PCSat 01 Mar 20:20:28 20:25:48 65° 113° (ESE) 20:31:11 145.827
PHONESAT 2.4 01 Mar 20:30:04 20:33:26 34° 356° (N) 20:36:47 2401.200-2431.200
VERMONT LUNAR 01 Mar 20:34:47 20:37:59 33° 4° (N) 20:41:11 437.305
DELFI C3 01 Mar 20:36:51 20:40:34 38° 74° (ENE) 20:44:20 145.870
CUBEBUG 2 01 Mar 20:40:16 20:44:32 41° 74° (ENE) 20:48:43 437.445
Oscar 11 01 Mar 20:41:29 20:45:42 59° 76° (ENE) 20:49:57 145.826/435.025
BRITE-PL 01 Mar 20:42:07 20:47:03 29° 265° (W) 20:51:46 437.365/2234.400
GOMX 1 01 Mar 20:52:42 20:57:32 31° 264° (W) 21:02:09 467.674
AAUSAT CUBESAT 2 01 Mar 20:57:44 21:01:36 37° 262° (W) 21:05:27 437.432
COMPASS 1 01 Mar 20:59:39 21:03:21 30° 264° (W) 21:07:01 437.405
GONETS M04 01 Mar 21:01:10 21:08:52 39° 88° (E) 21:16:44
AISAT 01 Mar 21:03:09 21:06:19 20° 69° (ENE) 21:09:39 437.250
DX 1 01 Mar 21:03:45 21:08:00 51° 74° (ENE) 21:12:17 434.975-435.025
VELOX 1 01 Mar 21:12:47 21:16:20 24° 71° (ENE) 21:20:01 145.980
RS-15 01 Mar 21:19:19 21:25:41 19° 103° (ESE) 21:32:51 29.354- 29.394
FUNcube-1 01 Mar 21:23:45 21:28:10 88° 78° (ENE) 21:32:30 145.935
ZACube-1 01 Mar 21:24:35 21:29:01 89° 256° (WSW) 21:33:22 437.345
ESTCUBE 1 01 Mar 21:25:17 21:27:52 16° 68° (ENE) 21:30:39 437.505/2401.250
SEEDS 01 Mar 21:27:32 21:29:26 12° 269° (W) 21:31:07 437.485
DOVE 4 01 Mar 21:34:28 21:37:50 17° 268° (W) 21:40:54 437.250
UKube-1 01 Mar 21:34:37 21:38:58 71° 258° (WSW) 21:43:19 .
HUMSAT D 01 Mar 21:36:33 21:40:43 62° 76° (ENE) 21:44:51 437.325/437.525
UNISAT 6 01 Mar 21:41:00 21:43:48 17° 93° (E) 21:46:46 437.425
UWE-3 01 Mar 21:41:30 21:45:49 45° 261° (W) 21:50:02 435.000/436.395/437.385
HO-68 01 Mar 21:43:19 21:47:40 16° 270° (W) 21:51:36 435.675
50 SAT 01 Mar 21:44:59 21:48:52 53° 75° (ENE) 21:52:45 437.505
CINEMA 3 01 Mar 21:50:15 21:53:42 19° 267° (W) 21:56:54 145.822/145.860
TIGRISAT 01 Mar 22:05:46 22:09:38 33° 97° (E) 22:13:34 435.000
PCSat 01 Mar 22:06:10 22:09:45 17° 311° (NW) 22:13:10 145.827
PHONESAT 2.4 01 Mar 22:08:49 22:12:20 45° 13° (NNE) 22:15:49 2401.200-2431.200
VERMONT LUNAR 01 Mar 22:12:43 22:16:12 74° 20° (NNE) 22:19:39 437.305
QB50P1 01 Mar 22:13:15 22:16:29 22° 94° (E) 22:19:47 145.935-145.965
DELFI C3 01 Mar 22:14:00 22:16:00 13° 269° (W) 22:17:48 145.870
QB50P2 01 Mar 22:16:34 22:19:58 24° 95° (E) 22:23:27 145.880/145.840
ANTELSAT 01 Mar 22:18:32 22:22:43 49° 100° (E) 22:26:57 437.575/2403.000
CUBEBUG 2 01 Mar 22:18:41 22:21:27 15° 268° (W) 22:23:56 437.445
BUGSAT 1 01 Mar 22:29:06 22:32:25 23° 95° (E) 22:35:46 437.445
DUCHIFAT 1 01 Mar 22:32:14 22:36:07 35° 97° (E) 22:39:59 145.980
AISAT 01 Mar 22:38:41 22:42:45 33° 263° (W) 22:46:48 437.250
DX 1 01 Mar 22:42:56 22:44:37 12° 269° (W) 22:46:01 434.975-435.025
CUBEBUG 1 01 Mar 22:45:17 22:49:43 70° 259° (WSW) 22:54:10 437.445
VELOX 1 01 Mar 22:49:03 22:52:51 26° 264° (W) 22:56:35 145.980
POLYITAN 1 01 Mar 22:51:00 22:55:12 65° 101° (E) 22:59:22 437.675
POPSAT HIP 1 01 Mar 22:52:03 22:56:16 65° 102° (ESE) 23:00:26 437.405
GONETS M04 01 Mar 22:57:38 23:05:41 40° 285° (WNW) 23:13:39
ESTCUBE 1 01 Mar 23:00:08 23:04:26 43° 262° (W) 23:08:45 437.505/2401.250
DANDE 01 Mar 23:07:55 23:13:58 30° 95° (E) 23:19:00 436.750
NANOSAT C BR1 01 Mar 23:15:41 23:19:52 63° 284° (WNW) 23:24:00 145.865
UNISAT 6 01 Mar 23:16:51 23:20:43 33° 287° (WNW) 23:24:35 437.425
SPROUT 01 Mar 23:21:32 23:25:51 69° 76° (ENE) 23:30:11 437.525
RS-15 01 Mar 23:25:55 23:36:52 88° 301° (WNW) 23:47:55 29.354- 29.394
TISAT 1 01 Mar 23:29:02 23:33:19 78° 77° (ENE) 23:37:37 437.305
CUSAT 1 01 Mar 23:42:56 23:49:47 72° 98° (E) 23:54:59 437.405
TIGRISAT 01 Mar 23:43:17 23:46:12 18° 290° (WNW) 23:49:01 435.000
PHONESAT 2.4 01 Mar 23:47:19 23:50:50 48° 209° (SSW) 23:54:18 2401.200-2431.200
QB50P1 01 Mar 23:48:49 23:52:21 25° 289° (WNW) 23:55:47 145.935-145.965
VERMONT LUNAR 01 Mar 23:51:12 23:53:53 21° 215° (SW) 23:56:32 437.305
QB50P2 01 Mar 23:52:26 23:55:49 23° 289° (WNW) 23:59:06 145.880/145.840
ANTELSAT 01 Mar 23:57:16 23:59:10 12° 292° (WNW) 00:00:52 437.575/2403.000
BUGSAT 1 02 Mar 00:04:33 00:07:51 22° 289° (WNW) 00:11:00 437.445
DUCHIFAT 1 02 Mar 00:09:04 00:11:43 16° 291° (WNW) 00:14:10 145.980
SWISSCUBE 02 Mar 00:16:00 00:20:25 40° 72° (ENE) 00:24:54 437.505
BEESAT 02 Mar 00:24:42 00:29:12 45° 73° (ENE) 00:33:47 436.000
DANDE 02 Mar 00:50:37 00:57:17 38° 281° (WNW) 01:02:28 436.750
ITUPSAT 1 02 Mar 00:51:10 00:55:57 87° 76° (ENE) 01:00:46 437.325
KKS-1 02 Mar 00:52:57 00:55:32 16° 68° (ENE) 00:58:18 437.445
STARS 02 Mar 01:02:22 01:04:04 12° 67° (ENE) 01:06:01 437.465
SO-50 02 Mar 01:08:00 01:12:21 49° 116° (ESE) 01:16:55 436.795
BEESAT 3 02 Mar 01:16:39 01:18:45 14° 47° (NE) 01:20:59 437.485
ITAMSAT 1 02 Mar 01:19:39 01:23:15 19° 93° (E) 01:27:02 435.822/435.867
Oscar 19 02 Mar 01:22:11 01:27:18 69° 101° (ESE) 01:32:24 437.125/150
CUSAT 1 02 Mar 01:29:44 01:32:45 13° 287° (WNW) 01:35:06 437.405
BEESAT 2 02 Mar 01:40:24 01:43:30 20° 50° (NE) 01:46:39 435.950
RS-15 02 Mar 01:42:23 01:51:06 25° 324° (NW) 01:59:38 29.354- 29.394
JUGNU 02 Mar 01:50:45 01:53:28 13° 169° (SSE) 01:56:17 437.505
SWISSCUBE 02 Mar 01:55:11 01:58:29 18° 267° (W) 02:01:36 437.505
BEESAT 02 Mar 02:04:26 02:07:22 15° 268° (W) 02:10:04 436.000
Gurwin Techsat 1B 02 Mar 02:25:02 02:30:19 67° 101° (E) 02:35:37 435.225
KKS-1 02 Mar 02:27:37 02:31:53 42° 261° (W) 02:36:08 437.445
STARS 02 Mar 02:35:48 02:40:09 53° 260° (W) 02:44:30 437.465
HORYU 2 02 Mar 02:48:46 02:52:32 27° 96° (E) 02:56:22 437.375
SO-50 02 Mar 02:50:01 02:53:15 18° 313° (NW) 02:56:27 436.795
BEESAT 3 02 Mar 02:53:11 02:57:12 52° 245° (WSW) 03:01:08 437.485
ITAMSAT 1 02 Mar 02:58:03 03:02:59 43° 288° (WNW) 03:07:51 435.822/435.867
YUBILEINY 02 Mar 03:02:10 03:10:54 61° 80° (E) 03:19:36 435.215
Oscar 19 02 Mar 03:03:52 03:06:09 13° 295° (WNW) 03:08:09 437.125/150
AIST 2 02 Mar 03:10:26 03:14:41 70° 59° (ENE) 03:18:51 435.215
JAS-2 02 Mar 03:15:49 03:21:39 25° 92° (E) 03:27:57 435.910
BEESAT 2 02 Mar 03:18:03 03:21:45 31° 247° (WSW) 03:25:22 435.950
M-CUBED/EXP-1 PRIME 02 Mar 03:27:27 03:30:44 83° 73° (ENE) 03:34:07 437.505
AO-7 02 Mar 03:29:27 03:37:06 41° 99° (E) 03:44:50 29.400- 29.500
AUBIESAT-1 02 Mar 03:30:06 03:33:22 78° 73° (ENE) 03:36:45 437.475
MOZHAYETS 4 02 Mar 03:33:07 03:37:18 39° 73° (ENE) 03:41:35
JUGNU 02 Mar 03:37:53 03:41:47 18° 178° (S) 03:45:41 437.505
SRMSAT 02 Mar 03:38:49 03:41:53 14° 170° (S) 03:45:02 437.500
RS-15 02 Mar 04:05:44 04:09:24 12° 359° (N) 04:13:04 29.354- 29.394
Gurwin Techsat 1B 02 Mar 04:07:04 04:09:49 14° 295° (WNW) 04:12:16 435.225
HORYU 2 02 Mar 04:25:34 04:29:06 23° 290° (WNW) 04:32:33 437.375
PRISM 02 Mar 04:57:06 05:00:17 22° 70° (ENE) 05:03:34 437.425
JAS-2 02 Mar 04:59:40 05:07:03 62° 287° (WNW) 05:14:44 435.910
YUBILEINY 02 Mar 05:00:15 05:07:09 25° 276° (W) 05:13:41 435.215
MOZHAYETS 4 02 Mar 05:11:48 05:14:45 16° 268° (W) 05:17:32
PCSat 02 Mar 05:12:04 05:16:35 27° 53° (NE) 05:21:10 145.827
STRAND 1 02 Mar 05:18:48 05:22:59 26° 69° (ENE) 05:27:16 437.568
AO-7 02 Mar 05:22:17 05:29:53 40° 295° (WNW) 05:37:20 29.400- 29.500
SRMSAT 02 Mar 05:26:25 05:30:23 18° 180° (S) 05:34:20 437.500
JUGNU 02 Mar 05:26:42 05:30:07 15° 188° (S) 05:33:29 437.505
CUBESAT XI-V 02 Mar 05:29:38 05:34:09 52° 75° (ENE) 05:38:45 437.345
AIST 1 02 Mar 06:18:35 06:22:01 24° 90° (E) 06:25:34
Cubesat XI-IV 02 Mar 06:19:04 06:24:28 83° 102° (ESE) 06:29:50 437.490
RS-15 02 Mar 06:19:23 06:27:54 24° 34° (NE) 06:37:04 29.354- 29.394
CUTE-I 02 Mar 06:28:16 06:33:39 82° 285° (WNW) 06:39:00 437.470
PRISM 02 Mar 06:32:18 06:35:42 24° 264° (W) 06:39:04 437.425
JAS-2 02 Mar 06:49:35 06:51:02 10° 301° (WNW) 06:51:53 435.910
PCSat 02 Mar 06:55:07 07:00:06 37° 250° (WSW) 07:05:00 145.827
STRAND 1 02 Mar 06:57:31 07:02:05 31° 264° (W) 07:06:37 437.568
CUBESAT XI-V 02 Mar 07:09:43 07:12:00 13° 270° (W) 07:14:00 437.345
SRMSAT 02 Mar 07:15:37 07:18:52 15° 190° (S) 07:22:02 437.500
GONETS M04 02 Mar 07:16:51 07:21:11 15° 63° (ENE) 07:26:11
ISS 02 Mar 07:25:03 07:26:31 13° 128° (SE) 07:28:07 145.825
HO-68 02 Mar 07:25:25 07:29:24 16° 90° (E) 07:33:50 435.675
CANX-2 02 Mar 07:40:54 07:42:52 13° 91° (E) 07:45:05 2200.000
O/OREOS (USA 219) 02 Mar 07:52:30 07:53:35 11° 99° (E) 07:55:00 437.305
AIST 1 02 Mar 07:56:10 07:59:39 22° 285° (WNW) 08:03:03
CUTE 1.7 + AOD 2 02 Mar 07:58:39 08:01:44 20° 94° (E) 08:04:57 437.475
DOVE 4 02 Mar 07:59:29 08:01:31 14° 91° (E) 08:03:43 437.250
Cubesat XI-IV 02 Mar 08:02:12 08:03:57 11° 297° (WNW) 08:05:21 437.490
RS-15 02 Mar 08:30:57 08:42:31 80° 60° (ENE) 08:54:35 29.354- 29.394
Oscar 11 02 Mar 08:33:43 08:35:49 14° 91° (E) 08:38:09 145.826/435.025
UNISAT 6 02 Mar 08:38:56 08:40:17 11° 67° (ENE) 08:41:51 437.425
AAUSAT CUBESAT 2 02 Mar 08:43:57 08:47:55 40° 98° (E) 08:51:53 437.432
COMPASS 1 02 Mar 08:45:59 08:50:05 51° 99° (E) 08:54:12 437.405
BRITE-PL 02 Mar 08:50:32 08:54:58 56° 285° (WNW) 08:59:07 437.365/2234.400
DX 1 02 Mar 08:57:55 08:59:04 11° 90° (E) 09:00:31 434.975-435.025
GOMX 1 02 Mar 08:58:02 09:02:23 72° 285° (WNW) 09:06:32 467.674
ISS 02 Mar 08:59:34 09:02:40 45° 321° (NW) 09:05:48 145.825
TIGRISAT 02 Mar 09:02:15 09:05:31 21° 71° (ENE) 09:08:51 435.000
QB50P1 02 Mar 09:04:53 09:06:24 12° 68° (ENE) 09:08:10 145.935-145.965
QB50P2 02 Mar 09:08:02 09:10:01 13° 68° (ENE) 09:12:14 145.880/145.840
HO-68 02 Mar 09:10:43 09:17:55 77° 287° (WNW) 09:25:05 435.675
GONETS M04 02 Mar 09:10:44 09:19:33 87° 83° (E) 09:28:22
SEEDS 02 Mar 09:12:31 09:16:41 59° 284° (WNW) 09:20:51 437.485
ANTELSAT 02 Mar 09:14:55 09:18:45 30° 72° (ENE) 09:22:35 437.575/2403.000
CANX-2 02 Mar 09:15:03 09:19:04 41° 286° (WNW) 09:23:04 2200.000
FUNcube-1 02 Mar 09:16:26 09:19:27 20° 94° (E) 09:22:34 145.935
ZACube-1 02 Mar 09:17:25 09:20:30 21° 94° (E) 09:23:43 437.345
BUGSAT 1 02 Mar 09:17:50 09:19:32 12° 68° (ENE) 09:21:27 437.445
DUCHIFAT 1 02 Mar 09:22:32 09:25:31 19° 70° (ENE) 09:28:37 145.980
HUMSAT D 02 Mar 09:26:02 09:27:42 12° 91° (E) 09:29:36 437.325/437.525
UKube-1 02 Mar 09:26:11 09:29:40 24° 95° (E) 09:33:13 .
O/OREOS (USA 219) 02 Mar 09:28:06 09:32:33 56° 292° (WNW) 09:37:04 437.305
CUTE 1.7 + AOD 2 02 Mar 09:34:02 09:37:43 28° 288° (WNW) 09:41:18 437.475
UWE-3 02 Mar 09:34:44 09:38:40 42° 98° (E) 09:42:39 435.000/436.395/437.385
DOVE 4 02 Mar 09:35:38 09:39:35 37° 287° (WNW) 09:43:24 437.250
POLYITAN 1 02 Mar 09:41:13 09:45:03 32° 73° (ENE) 09:48:54 437.675
POPSAT HIP 1 02 Mar 09:42:01 09:45:49 32° 73° (ENE) 09:49:41 437.405
SO-50 02 Mar 09:42:56 09:46:44 22° 49° (NE) 09:50:37 436.795
CINEMA 3 02 Mar 09:47:11 09:51:16 54° 284° (WNW) 09:55:18 145.822/145.860
DELFI C3 02 Mar 09:54:42 09:58:47 75° 283° (WNW) 10:02:52 145.870
NANOSAT C BR1 02 Mar 10:04:56 10:09:10 62° 76° (ENE) 10:13:24 145.865
Oscar 11 02 Mar 10:08:10 10:12:15 42° 286° (WNW) 10:16:20 145.826/435.025
CUBEBUG 2 02 Mar 10:11:08 10:15:11 53° 285° (WNW) 10:19:14 437.445
UNISAT 6 02 Mar 10:12:20 10:16:42 55° 260° (W) 10:21:00 437.425
AAUSAT CUBESAT 2 02 Mar 10:20:58 10:23:16 14° 291° (WNW) 10:25:22 437.432
COMPASS 1 02 Mar 10:23:52 10:25:25 12° 292° (WNW) 10:26:44 437.405
CUSAT 1 02 Mar 10:27:14 10:29:04 17° 76° (ENE) 10:31:00 437.405
DX 1 02 Mar 10:31:27 10:35:43 52° 286° (WNW) 10:39:56 434.975-435.025
AISAT 02 Mar 10:32:26 10:36:50 60° 100° (E) 10:41:11 437.250
QB50P1 02 Mar 10:37:43 10:41:54 51° 260° (W) 10:46:06 145.935-145.965
CUBEBUG 1 02 Mar 10:38:06 10:41:49 27° 96° (E) 10:45:34 437.445
TIGRISAT 02 Mar 10:38:16 10:42:09 29° 264° (W) 10:45:55 435.000
QB50P2 02 Mar 10:41:29 10:45:36 45° 261° (W) 10:49:44 145.880/145.840
VELOX 1 02 Mar 10:42:08 10:46:36 76° 102° (ESE) 10:51:02 145.980
RS-15 02 Mar 10:45:13 10:54:06 24° 255° (WSW) 11:02:32 29.354- 29.394
BUGSAT 1 02 Mar 10:50:30 10:54:39 49° 261° (W) 10:58:49 437.445
FUNcube-1 02 Mar 10:52:18 10:55:49 26° 288° (WNW) 10:59:16 145.935
ANTELSAT 02 Mar 10:52:19 10:55:37 20° 266° (W) 10:58:45 437.575/2403.000
ZACube-1 02 Mar 10:53:26 10:56:54 25° 288° (WNW) 11:00:18 437.345
ESTCUBE 1 02 Mar 10:55:58 11:00:24 49° 99° (E) 11:04:48 437.505/2401.250
DUCHIFAT 1 02 Mar 10:57:22 11:01:11 30° 263° (W) 11:04:58 145.980
HUMSAT D 02 Mar 10:59:52 11:03:45 41° 286° (WNW) 11:07:37 437.325/437.525
50 SAT 02 Mar 11:01:33 11:05:25 55° 284° (WNW) 11:09:17 437.505
HO-68 02 Mar 11:01:36 11:04:40 13° 302° (WNW) 11:07:17 435.675
UKube-1 02 Mar 11:02:12 11:05:46 25° 290° (WNW) 11:09:15 .
GONETS M04 02 Mar 11:10:30 11:15:25 16° 279° (W) 11:19:44
UWE-3 02 Mar 11:12:54 11:14:55 13° 292° (WNW) 11:16:45 435.000/436.395/437.385
SPROUT 02 Mar 11:13:01 11:15:28 15° 92° (E) 11:18:06 437.525
POLYITAN 1 02 Mar 11:18:06 11:21:05 18° 267° (W) 11:23:55 437.675
TISAT 1 02 Mar 11:18:31 11:20:59 16° 92° (E) 11:23:36 437.305
POPSAT HIP 1 02 Mar 11:18:50 11:21:49 18° 267° (W) 11:24:39 437.405
SO-50 02 Mar 11:22:49 11:27:31 43° 246° (WSW) 11:32:07 436.795
DANDE 02 Mar 11:37:23 11:39:46 30° 265° (W) 11:42:09 436.750
AISAT 02 Mar 12:11:36 12:13:00 11° 294° (WNW) 12:14:07 437.250
CUBEBUG 1 02 Mar 12:14:36 12:18:05 22° 290° (WNW) 12:21:26 437.445
SWISSCUBE 02 Mar 12:21:21 12:23:30 13° 91° (E) 12:25:57 437.505
BEESAT 02 Mar 12:29:37 12:32:17 15° 91° (E) 12:35:11 436.000
ESTCUBE 1 02 Mar 12:34:29 12:36:54 14° 293° (WNW) 12:39:06 437.505/2401.250
ITAMSAT 1 02 Mar 12:34:37 12:38:31 22° 68° (ENE) 12:42:35 435.822/435.867
Oscar 19 02 Mar 12:35:46 12:40:53 72° 75° (ENE) 12:46:01 437.125/150
